This is the latest recevied weather packets stored in our database for station/object I1SXT-13. If no packets are shown the sender has not sent any weather packets the latest 10 day(s).
| Time | Temp. | Humidity | Pressure | Rain* | Wind** | Luminosity | Snow |
|---|---|---|---|---|---|---|---|
| 1778155167 | 19.44° C | 70% | 1015.4 hPa | 0 mm | - | - | - |
| 1778154870 | 20° C | 70% | 1015.4 hPa | 0 mm | - | - | - |
| 1778154565 | 20° C | 71% | 1016.1 hPa | 0 mm | - | - | - |
| 1778154268 | 18.33° C | 75% | 1015.9 hPa | 0 mm | - | - | - |
| 1778153964 | 18.89° C | 72% | 1015.6 hPa | 0 mm | - | - | - |
| 1778153066 | 18.33° C | 72% | 1015.4 hPa | 0 mm | - | - | - |
| 1778152769 | 19.44° C | 69% | 1015.6 hPa | 0 mm | - | - | - |
| 1778151863 | 19.44° C | 69% | 1015.2 hPa | 0 mm | - | - | - |
| 1778151566 | 19.44° C | 71% | 1015 hPa | 0 mm | - | - | - |
| 1778151269 | 19.44° C | 70% | 1015.6 hPa | 0 mm | - | - | - |
| 1778150668 | 18.89° C | 70% | 1015.2 hPa | 0 mm | - | - | - |
| 1778150364 | 19.44° C | 71% | 1015.2 hPa | 0 mm | - | - | - |
| 1778150067 | 18.89° C | 72% | 1015.1 hPa | 0 mm | - | - | - |
| 1778149770 | 18.89° C | 73% | 1015.5 hPa | 0 mm | - | - | - |
| 1778149466 | 18.33° C | 74% | 1015.5 hPa | 0 mm | - | - | - |
| 1778149169 | 18.89° C | 74% | 1015.2 hPa | 0 mm | - | - | - |
| 1778148567 | 18.33° C | 73% | 1014.8 hPa | 0 mm | - | - | - |
| 1778148270 | 18.89° C | 71% | 1015.2 hPa | 0 mm | - | - | - |
| 1778147966 | 18.89° C | 74% | 1014.8 hPa | 0 mm | - | - | - |
| 1778147669 | 18.33° C | 72% | 1015.5 hPa | 0 mm | - | - | - |
| 1778147365 | 19.44° C | 72% | 1014.8 hPa | 0 mm | - | - | - |
| 1778147068 | 18.33° C | 70% | 1014.9 hPa | 0 mm | - | - | - |
| 1778146764 | 18.33° C | 72% | 1014.8 hPa | 0 mm | - | - | - |
| 1778146466 | 18.33° C | 73% | 1014.8 hPa | 0 mm | - | - | - |
| 1778146169 | 18.33° C | 71% | 1015.1 hPa | 0 mm | - | - | - |
* Rain since midnight (hover to see other rain measurements)
** Current wind speed in m/s (hover to see current wind gust speed)